User: anonymous
Location: Zlin
(49.2330°N, 17.6670°E)
Time: 00:08:16
(UTC+02:00)
Language:

ISS - Orbit

View from above orbital plane
View from above orbital plane
View from above satellite
View from above satellite

Ground track
Ground track

The orbit data is extracted from the following two-line orbital elements,

1 25544U 98067A   14113.69645197  .00039110  00000-0  68123-3 0  1389
2 25544 051.6511 009.6343 0004025 322.0214 098.5096 15.50351772882877
Epoch (UTC): 23 April 2014 16:42:53
Eccentricity: 0.0004025
inclination: 51.6511°
perigee height: 413 km
apogee height: 418 km
right ascension of ascending node: 9.6343°
argument of perigee: 322.0214°
revolutions per day: 15.50351772
mean anomaly at epoch: 98.5096°
orbit number at epoch: 88287

The dashed part of the orbit path shows where the satellite is in the earth's shadow,  

DLR